Regional Weather Roundup
Issued by NWS Albany, NY

Home | Current Version | Previous Version | Text Only | Print | Product List | Glossary On
Versions: 1 2 3 4 5 6 7 8 9 10 11 12 13 14 15 16 17 18 19 20 21 22 23 24 25 26 27 28 29 30 31 32 33 34 35 36 37 38 39 40 41 42 43 44 45 46 47 48 49 50
000
ASUS41 KALY 060110
RWRALY

NEW YORK STATE HOURLY WEATHER ROUNDUP
NATIONAL WEATHER SERVICE ALBANY NY
900 PM EDT SUN JUL 05 2015

NOTE: "FAIR" INDICATES FEW OR NO CLOUDS BELOW 12,000 FEET WITH NO
SIGNIFICANT WEATHER AND/OR NO OBSTRUCTIONS TO VISIBILITY.

NYZ032-033-038>043-046>054-057>066-NYZ062>081-060200-
EAST


CITY           SKY/WX    TMP DP  RH WIND       PRES   REMARKS
ALBANY         PTCLDY    73  61  65 SW3       30.10R
GLENS FALLS    CLEAR     69  64  84 CALM      30.08R
POUGHKEEPSIE   PTCLDY    72  64  76 CALM      30.09R
NEWBURGH       CLEAR     73  64  73 CALM      30.12R
MONTGOMERY     PTCLDY    70  64  81 CALM      30.10R
WHITE PLAINS   PTCLDY    72  63  73 S5        30.12R
ISLIP          MOCLDY    71  63  75 SW8       30.11S
NEW YORK CITY  MOCLDY    76  62  62 S9        30.11R
CENTRAL PARK   PTCLDY    76  61  59 CALM      30.14R
$$

NYZ005>009-017-018-044>046-055-056-060200-
CENTRAL


CITY           SKY/WX    TMP DP  RH WIND       PRES   REMARKS
FULTON         CLEAR     65  60  84 CALM      30.12R
SYRACUSE       PTCLDY    70  59  68 CALM      30.11S
ROME           CLEAR     68  60  75 CALM      30.13R
ELMIRA         PTCLDY    69  62  78 CALM      30.12S
BINGHAMTON     PTCLDY    70  53  54 N3        30.16S
MONTICELLO     PTCLDY    68  57  68 CALM      30.16S
$$

NYZ026>034-041>043-060200-
NORTH


CITY           SKY/WX    TMP DP  RH WIND       PRES   REMARKS
WATERTOWN      CLEAR     65  58  78 CALM      30.11S
FORT DRUM      NOT AVBL
MASSENA        CLEAR     73  61  65 SW7       30.09R
SARANAC LAKE   CLEAR     61  57  87 CALM      30.14R
PLATTSBURGH    CLEAR     67  64  90 CALM      30.08R
$$

NYZ001>004-010>016-019>021-060200-
WEST


CITY           SKY/WX    TMP DP  RH WIND       PRES   REMARKS
NIAGARA FALLS  MOCLDY    72  57  59 S3        30.10S
BUFFALO        MOCLDY    74  55  51 SW3       30.11S
DUNKIRK        MOCLDY    69  61  75 NE3       30.11S
JAMESTOWN      CLOUDY    72  59  64 N3        30.15F
WELLSVILLE     PTCLDY    69  54  58 CALM      30.19R
ROCHESTER      PTCLDY    75  61  61 E5        30.12R
PENN YAN       CLEAR     69  62  78 CALM      30.13S
$$

             KEY
       WCI = WIND CHILL INDEX
       VSB = VISIBILITY
       HX  = HEAT INDEX
$$



USA.gov is the U.S. government's official web portal to all federal, state and local government web resources and services.